Regional Weather Roundup
Issued by NWS

Home | Current Version | Previous Version | Graphics & Text | Print | Product List | Glossary On
Versions: 1 2 3 4 5 6 7 8 9 10 11 12 13 14 15 16 17 18 19 20 21 22 23 24 25 26 27 28 29 30 31 32 33 34 35 36 37 38 39 40 41 42 43 44 45 46 47 48 49 50
192
ASUS43 KIND 240059
RWRIN

WEATHER ROUNDUP FOR INDIANA
NATIONAL WEATHER SERVICE INDIANAPOLIS IN
900 PM EDT THU MAR 23 2017

NOTE: "FAIR" INDICATES FEW OR NO CLOUDS BELOW 12,000 FEET WITH NO
SIGNIFICANT WEATHER AND/OR OBSTRUCTIONS TO VISIBILITY.

* - STATION DOES NOT REPORT WEATHER SUCH AS PRECIPITATION OR FOG.

+ - STATION NOT QUALITY CONTROLLED BY THE NATIONAL WEATHER SERVICE.
    USE DATA WITH CAUTION...ESPECIALLY DEWPOINT AND RELATIVE
    HUMIDITY OBSERVATIONS.

INZ001>003-010>013-019-020-240200-
NORTHWEST INDIANA

CITY           SKY/WX    TMP DP  RH WIND       PRES   REMARKS
GARY /AIRPORT/ CLOUDY    48  30  49 SE8       30.08F
MONTICELLO +   CLOUDY    50  28  42 SE8       30.12F

$$

LMZ046-743>745-240200-
SOUTHERN LAKE MICHIGAN

STATION/POSITION TIME  TEMP    WIND        PRES    WAVE
                       AIR SEA DIR/SP/G            HT
                 (UTC) (F)     (DEG/KT/KT) (MB)    (FT)
BURNS HARBOR     0040   48     160/  8/ 20 1018.3F
MICHIGAN CITY    0030   47     140/ 14/ 17   N/A

$$

INZ004-005-014>016-021>024-240200-
NORTH CENTRAL INDIANA

CITY           SKY/WX    TMP DP  RH WIND       PRES   REMARKS
ELKHART        CLOUDY    45  25  45 SE10      30.12F
GOSHEN         CLOUDY    46  25  43 SE12      30.13F
SOUTH BEND     CLOUDY    45  26  47 SE14      30.13F

$$

INZ006>009-017-018-025>027-240200-
NORTHEAST INDIANA

CITY           SKY/WX    TMP DP  RH WIND       PRES   REMARKS
ANGOLA *+      CLOUDY    45  30  57 S10       30.17F
FORT WAYNE     CLOUDY    47  29  49 SE7       30.19F
KENDALLVILLE + CLOUDY    45  24  44 SE13      30.17F

$$

INZ028-029-035-036-043>045-051>053-240200-
WEST CENTRAL INDIANA

CITY           SKY/WX    TMP DP  RH WIND       PRES   REMARKS
CRAWFORDSVL +  CLOUDY    48  30  49 SE13      30.14F
GREENCASTLE +  CLOUDY    48  28  46 S10       30.16F
LAFAYETTE      CLOUDY    51  29  42 SE9       30.12F
TERRE HAUTE    CLEAR     49  31  49 SE12      30.15F

$$

INZ030>032-037>040-046>048-054>057-064-065-240200-
CENTRAL INDIANA

CITY           SKY/WX    TMP DP  RH WIND       PRES   REMARKS
COLUMBUS       MOCLDY    52  30  43 SE5       30.22F
INDIANAPOLIS   CLOUDY    53  26  35 S9        30.18F
-EAGLE CREEK   CLOUDY    54  24  31 S9        30.17F
KOKOMO +       LGT RAIN  50  32  50 S14       30.16F
SHELBYVILLE    PTCLDY    55  30  38 S9        30.19F

$$

INZ033-034-041-042-049-050-058-059-240200-
EAST CENTRAL INDIANA

CITY           SKY/WX    TMP DP  RH WIND       PRES   REMARKS
MUNCIE         CLOUDY    53  27  36 S7        30.18F
RICHMOND +     CLOUDY    48  32  53 SE7       30.24F

$$

INZ060-061-067>069-081>083-085>088-240200-
SOUTHWEST INDIANA

CITY           SKY/WX    TMP DP  RH WIND       PRES   REMARKS
EVANSVILLE     CLEAR     50  40  68 E3        30.19F
HUNTINGBURG *+ PTCLDY    52  38  58 SE7       30.20F

$$

INZ062-063-066-070>080-084-089>092-240200-
SOUTH CENTRAL AND SOUTHEAST INDIANA

CITY           SKY/WX    TMP DP  RH WIND       PRES   REMARKS
BLOOMINGTON    MOCLDY    52  28  39 SE8       30.18F
MADISON *+     CLOUDY    55  30  38 E3        30.25S
SEYMOUR +      MOCLDY    52  34  50 SE6       30.22F

$$





USA.gov is the U.S. government's official web portal to all federal, state and local government web resources and services.